Location: Hilton Head Island
(32.2163°N, 80.7526°W)
Time: 17:57:46
(UTC-04:00)

A-11 Canister half - Pass Details

Date: 17 February 2026
Orbit: 1525 x 1683 km, 47.3° (Epoch: 10 March)

Event Time Altitude Azimuth Distance (km) Brightness Sun altitude
Rises 20:26:21 0° 298° (WNW) 4,680 12.5 -29.2°
Reaches altitude 10° 20:29:51 10° 308° (NW) 3,692 11.7 -30.0°
Maximum altitude 20:38:02 33° 10° (N) 2,346 9.8 -31.7°
Enters shadow 20:39:32 32° 27° (NNE) 2,407 9.8 -32.0°
